Theta_e
311 317 321 318 320 320 320 319 316 320 320 316 317 317 316 313 311 311 308 306 303 305 308 307 306 305 305 305 305 306 306 304 302 299 299 299 298 297 295 294 294 293 293 293 291 290 291 290 290 290 290 290 290 290 290 290 290 290 289 289 289 289 288 288 288 288 287 287 287 287 287 287 287 287 287 287 286 286 286 286 286 285 285 286 286 285
310 317 321 318 319 318 318 315 311 311 310 310 312 312 312 311 310 309 306 307 306 305 308 309 307 306 305 305 305 306 306 306 305 302 301 301 300 298 296 295 294 294 293 293 291 290 290 289 289 289 289 289 289 289 290 290 290 290 289 289 289 288 288 288 288 287 287 287 287 287 287 287 287 287 286 286 286 286 286 285 285 285 285 285 285 285
316 319 319 317 314 311 309 307 307 311 309 310 312 311 312 311 311 311 307 307 306 305 309 310 307 306 306 306 306 307 306 307 306 305 304 304 302 299 297 296 295 294 294 293 292 290 289 288 288 288 288 288 289 289 290 290 290 289 289 289 289 288 288 287 287 287 287 287 286 286 286 286 286 286 286 286 286 286 286 285 285 285 285 285 285 285
321 323 316 311 310 310 309 305 306 310 310 312 313 313 315 312 312 315 311 308 306 306 307 308 306 306 307 306 307 308 307 307 307 306 305 304 304 302 299 297 296 295 295 293 292 291 288 287 287 287 287 288 288 289 289 290 290 289 289 289 288 288 288 287 287 287 286 286 286 286 286 286 285 286 286 286 286 286 286 286 286 285 285 285 285 285
321 319 307 303 307 314 314 306 306 309 311 316 314 312 315 314 313 315 312 309 309 308 305 306 310 310 310 310 309 309 307 307 306 306 306 303 302 302 301 299 297 296 295 294 293 291 289 287 287 287 287 287 288 288 289 290 289 289 289 289 288 288 288 287 287 286 286 286 286 285 285 285 285 285 285 286 286 286 286 286 286 286 285 285 285 285
319 311 304 307 307 312 316 311 311 312 314 320 318 313 312 314 313 311 310 310 315 317 307 307 314 313 313 314 313 313 312 313 309 308 310 305 302 301 301 300 298 296 296 294 293 292 290 288 287 287 286 287 287 288 289 290 290 289 289 288 288 288 287 287 287 286 286 285 285 285 285 285 285 285 285 285 285 284 284 284 285 285 284 284 284 284
316 305 305 313 311 311 313 314 315 312 313 318 316 313 310 309 309 308 309 311 318 320 308 308 316 315 312 314 317 319 319 318 314 311 311 308 305 304 301 300 298 297 295 294 293 292 290 288 287 286 286 286 287 287 289 289 289 289 288 288 288 288 287 287 286 286 285 285 285 285 284 284 284 284 285 284 283 283 283 283 284 284 284 284 283 283
313 307 307 311 312 312 312 314 315 311 316 319 312 311 312 309 311 311 309 310 313 313 308 309 312 313 313 313 316 318 316 315 313 312 311 308 307 305 302 300 298 297 296 294 293 292 291 289 287 286 286 286 286 287 288 289 289 288 288 288 287 287 287 287 286 286 285 285 285 284 284 284 284 283 284 284 283 282 282 283 284 284 284 284 283 283
310 312 313 312 312 313 314 317 313 310 316 317 307 308 310 310 313 312 309 309 310 308 312 311 307 310 314 312 311 309 310 314 315 315 314 314 313 307 304 302 298 297 295 294 293 292 290 289 287 287 286 286 286 287 288 289 289 288 288 287 287 287 287 286 286 285 285 285 284 284 284 284 284 283 283 282 282 282 281 282 283 283 283 283 282 282
310 310 311 313 315 315 315 311 306 309 313 309 304 306 309 309 310 309 309 310 310 311 315 313 307 311 315 313 311 307 309 315 315 314 313 314 315 308 305 304 301 298 295 294 293 291 290 289 288 287 286 286 286 287 288 289 288 287 287 287 287 287 286 286 286 285 285 285 284 284 284 283 283 282 281 281 281 281 280 280 281 282 281 281 281 281
307 303 305 311 313 312 311 304 301 307 308 303 306 311 312 312 308 309 312 311 313 316 317 313 308 310 314 315 313 310 312 317 315 314 312 312 315 312 307 306 304 300 296 293 292 291 289 288 287 287 286 286 286 287 288 288 287 287 287 286 286 286 286 285 285 285 285 285 284 284 283 283 282 282 281 280 281 280 279 280 280 280 279 280 280 280
308 306 309 311 309 307 309 307 303 303 303 305 313 316 316 317 313 315 316 313 316 319 316 311 306 307 312 314 311 310 312 314 313 314 316 317 320 320 314 309 306 300 296 293 291 290 288 287 286 285 285 285 285 286 286 287 287 286 286 286 286 285 285 285 285 285 285 285 284 284 283 282 281 281 280 280 280 279 279 279 279 278 279 279 280 280
314 312 311 308 305 307 314 314 306 303 304 307 315 320 320 320 320 322 321 316 319 319 311 306 305 307 310 310 309 310 311 311 309 310 317 321 320 320 318 312 306 299 294 292 290 289 288 287 286 285 285 285 285 285 286 286 286 286 286 285 285 285 285 285 285 285 285 284 284 283 282 281 281 280 280 279 279 278 278 278 277 277 277 278 279 279
320 314 308 308 308 309 314 315 313 311 307 306 314 320 320 321 323 324 320 315 315 317 309 303 307 310 309 310 310 309 310 311 308 306 311 316 316 316 313 308 304 298 293 291 289 288 287 286 286 285 285 285 285 285 285 286 286 285 285 285 285 285 285 285 285 285 285 284 283 282 282 281 281 280 279 278 278 278 277 277 276 276 276 276 277 277
320 316 313 313 313 310 309 312 317 316 308 307 313 316 317 324 327 322 322 318 315 319 312 304 309 314 312 312 312 309 308 309 308 307 306 308 308 306 304 302 300 297 292 289 288 287 287 286 286 285 285 285 285 285 285 285 285 285 285 284 284 285 285 285 285 285 285 284 283 282 282 281 280 279 279 278 277 277 277 276 276 276 276 276 276 276
315 318 317 309 308 307 308 312 314 313 309 309 312 313 315 321 319 316 319 317 315 319 315 308 311 314 310 311 312 311 309 308 308 307 306 306 304 301 301 301 298 296 291 288 287 287 286 286 285 285 285 285 285 285 284 285 285 284 284 284 284 284 285 285 285 285 284 283 283 282 281 280 279 279 278 278 277 277 276 275 275 275 275 275 275 275
315 319 313 304 305 304 303 307 309 311 311 309 310 313 313 312 314 317 316 311 310 315 315 313 313 311 308 310 310 310 309 308 307 306 305 306 302 299 301 300 297 295 291 289 287 287 286 285 285 285 285 284 284 284 284 284 284 285 284 284 284 284 284 285 284 284 284 283 282 281 280 280 279 278 277 277 277 277 275 275 275 275 275 275 275 274
318 319 311 306 310 304 296 302 306 305 307 311 315 313 308 308 312 318 319 316 315 316 316 316 313 309 310 310 308 307 307 307 307 305 305 304 300 299 301 299 297 294 291 288 287 286 286 285 284 284 284 284 284 284 284 284 284 284 284 285 285 285 285 285 284 284 283 282 281 281 280 280 279 278 277 277 277 276 275 275 275 275 274 275 274 274
317 316 314 306 308 303 296 303 309 303 301 308 312 307 308 314 315 315 316 317 317 316 318 319 312 309 310 309 308 308 308 309 307 306 304 303 301 300 299 298 296 294 290 288 287 286 285 285 284 284 284 284 283 284 284 284 284 284 284 284 285 285 285 284 284 283 282 281 281 280 280 279 278 277 277 277 276 275 275 275 275 274 274 274 273 273
315 315 316 306 302 303 301 305 313 308 301 302 304 302 306 313 316 315 313 315 317 314 314 315 311 310 311 312 312 310 309 309 309 309 308 306 304 300 299 299 297 294 291 289 287 286 285 285 284 284 284 283 283 283 284 284 284 284 284 284 284 284 284 283 282 281 280 280 280 280 279 278 277 277 278 277 275 275 275 275 274 274 273 273 272 272
314 315 317 308 301 305 307 307 311 310 305 303 305 305 306 307 311 313 310 312 317 315 314 314 311 310 312 314 314 311 310 309 308 311 311 309 306 300 298 299 297 295 292 289 287 286 285 285 284 283 283 282 282 283 283 283 284 284 284 284 284 284 283 282 281 280 280 280 279 279 278 277 277 278 277 276 275 275 275 275 274 273 272 272 271 271
315 316 316 313 308 308 310 307 305 308 308 305 306 307 306 306 310 313 311 311 313 314 316 316 311 309 311 313 314 314 314 312 309 310 311 312 310 304 299 297 296 295 292 289 288 286 285 284 283 282 282 281 281 282 282 283 283 283 283 283 283 283 281 280 280 279 279 279 278 278 277 277 277 277 276 275 275 275 275 274 273 272 271 271 271 270
318 319 315 315 315 311 307 302 300 304 307 306 307 307 307 307 309 312 312 311 312 311 311 312 312 310 311 317 319 318 319 318 313 310 312 314 313 309 303 296 294 293 291 289 287 286 285 284 282 282 281 281 281 281 282 282 283 283 283 283 282 281 280 280 279 278 278 277 277 277 277 277 277 276 275 275 275 275 274 273 272 271 270 270 270 270
316 317 313 314 317 313 304 299 299 301 304 307 308 307 307 306 307 311 311 311 313 312 311 312 312 309 310 318 321 319 321 319 311 307 310 313 311 307 303 297 293 292 290 288 287 285 284 283 282 281 281 280 280 280 281 282 282 282 282 282 281 280 279 279 278 277 277 276 276 277 277 277 276 275 274 275 274 273 273 272 271 270 269 269 269 269
313 316 315 314 317 317 310 305 304 303 304 308 309 307 306 306 306 309 309 308 311 310 310 312 312 309 309 313 314 313 313 313 307 302 303 308 309 306 301 296 292 290 289 288 286 285 284 283 282 282 281 280 280 280 280 281 282 282 281 281 280 279 278 277 277 276 276 276 276 277 277 276 275 274 274 274 273 272 271 270 269 269 268 268 268 268
315 317 315 313 315 316 314 311 312 310 305 305 308 307 306 306 306 308 308 309 309 309 308 309 309 309 309 310 309 307 307 308 306 302 300 300 301 300 299 296 292 289 289 287 285 284 284 283 282 282 281 281 280 280 280 281 281 280 280 280 279 278 277 276 276 275 275 275 276 276 276 274 273 273 273 273 272 271 270 269 269 268 268 267 267 266
318 317 312 313 315 313 312 310 313 314 309 307 309 307 306 306 306 307 309 310 310 309 309 309 308 309 309 308 308 307 307 308 307 306 304 302 299 297 296 295 293 291 289 287 285 284 283 283 282 282 281 281 280 280 280 280 280 279 279 279 278 277 276 275 274 274 275 275 275 275 274 273 273 273 272 272 271 270 269 268 268 267 267 266 266 265
317 315 312 313 313 311 312 310 310 312 310 309 310 308 306 305 305 307 309 308 310 311 311 309 308 309 309 308 308 308 308 308 307 307 307 306 305 302 298 295 293 291 288 286 285 284 283 283 282 282 281 281 280 280 280 279 279 279 279 278 277 276 275 274 274 274 274 275 275 274 273 273 272 272 272 271 270 269 268 268 267 267 266 266 265 264
311 313 312 313 313 311 310 309 309 309 307 308 310 309 308 306 305 307 307 307 308 310 310 309 309 309 309 308 308 308 307 307 308 307 306 307 308 307 303 298 295 293 288 287 286 285 284 283 283 282 282 280 280 279 279 278 278 278 278 277 276 275 274 273 274 274 274 274 274 273 272 272 272 271 271 271 270 269 267 266 266 266 266 265 264 264
309 311 312 311 311 311 310 309 309 308 307 307 307 308 308 306 305 305 306 306 307 308 308 308 309 308 308 308 308 307 307 308 308 308 307 307 307 308 306 301 298 295 290 288 287 285 284 284 283 282 281 280 280 279 278 277 277 277 277 275 275 274 273 273 273 273 274 273 272 272 271 271 271 271 271 270 269 267 266 265 265 265 265 265 264 264
308 310 311 310 310 311 310 309 309 308 307 307 307 307 307 305 305 305 304 305 306 307 306 306 307 307 307 307 307 307 307 307 307 307 307 306 306 306 306 304 301 297 292 290 288 285 284 284 283 282 281 281 280 279 278 277 276 276 275 274 274 273 273 273 273 273 273 273 272 271 271 271 271 271 270 269 267 266 265 265 265 265 265 265 264 263
308 309 310 310 311 311 310 310 310 309 308 307 307 308 307 307 306 305 305 305 305 306 306 306 307 307 306 306 307 307 308 308 307 307 306 305 306 305 305 305 304 300 295 292 289 286 285 284 283 283 282 281 280 279 277 276 275 275 274 273 273 273 273 273 273 273 272 272 271 271 270 271 271 271 270 268 266 265 264 264 264 264 265 264 264 263
309 309 310 310 310 311 311 312 312 311 310 309 309 308 308 308 308 307 307 307 306 306 306 307 307 307 306 307 307 307 308 308 308 307 306 305 306 305 305 306 305 303 299 294 291 288 286 284 283 283 282 281 280 278 277 276 275 274 274 273 273 272 272 272 272 272 271 270 270 270 270 271 271 270 268 266 265 264 264 264 264 265 265 264 263 263
309 309 309 310 310 311 312 312 312 312 312 311 311 312 311 309 309 309 308 308 308 307 306 306 306 306 307 307 307 307 307 307 307 306 306 306 307 306 306 306 305 303 301 297 292 289 286 285 283 282 282 281 279 278 277 276 276 275 274 273 272 272 272 272 271 271 270 270 270 270 270 271 270 268 266 265 265 264 264 264 265 265 264 263 263 262
309 308 308 309 309 310 311 311 312 312 312 311 313 314 312 310 310 310 309 309 309 308 307 307 306 306 307 307 307 307 307 306 307 306 306 308 309 307 306 306 304 303 301 297 293 290 286 284 283 282 281 280 278 277 276 275 275 274 272 272 272 271 271 271 270 270 270 270 269 270 270 270 269 266 265 264 264 264 265 266 266 265 264 263 262 262
308 308 308 308 309 310 310 311 312 312 311 310 312 311 309 309 310 310 309 309 309 308 309 308 307 307 308 308 307 307 307 307 307 306 306 309 309 307 305 305 304 303 301 297 294 290 286 284 283 282 280 278 277 276 275 274 274 273 271 271 271 270 270 270 270 269 269 269 269 270 269 268 267 265 264 263 264 265 267 267 266 265 263 262 262 262
308 308 308 308 310 311 310 310 311 311 311 310 310 309 309 309 309 309 310 309 308 308 308 308 308 308 307 307 307 307 307 307 307 306 307 308 308 305 303 303 303 303 300 296 292 289 285 284 283 281 278 276 275 274 274 273 273 272 270 269 270 269 269 269 269 269 269 269 269 269 268 267 265 264 263 263 264 267 268 267 265 264 263 262 262 262
307 308 309 309 310 311 311 311 311 312 312 311 309 309 310 311 310 309 310 310 309 308 308 308 308 308 307 308 307 307 308 308 308 308 307 308 307 305 302 301 300 299 297 292 289 285 283 282 281 279 277 275 273 273 273 272 272 271 269 268 268 268 268 268 268 268 269 269 269 268 267 265 263 262 263 264 265 267 268 266 264 264 263 262 262 262
308 308 309 309 310 311 312 312 312 313 312 311 309 309 311 313 311 309 310 310 309 308 308 308 308 308 308 308 307 309 310 309 309 308 307 308 308 306 304 300 295 293 291 288 286 284 281 280 278 276 275 273 271 271 272 271 271 270 268 267 268 268 268 268 268 268 269 269 268 268 267 265 262 262 263 266 267 267 266 265 264 263 262 262 262 262
309 308 308 309 310 311 312 312 312 312 312 312 311 310 310 310 310 310 311 312 310 309 309 309 309 308 308 308 309 310 310 309 309 309 307 306 304 300 298 296 292 290 288 284 282 282 279 277 276 274 273 272 270 270 270 270 270 269 268 267 267 267 267 268 268 268 269 268 268 267 265 263 262 262 264 266 267 267 266 264 263 262 262 262 262 262
309 309 309 309 310 310 311 312 312 311 311 312 312 309 307 308 310 312 313 312 310 312 312 309 310 309 308 309 309 309 308 307 308 308 304 302 300 296 291 289 287 285 284 281 280 278 277 275 274 273 272 271 270 269 270 270 269 268 267 267 266 266 267 268 268 268 269 268 267 266 264 262 263 264 264 265 267 268 266 263 262 262 262 262 262 262
308 309 309 309 310 310 310 312 312 311 311 311 310 307 307 309 311 312 311 309 311 313 312 310 309 309 308 308 307 307 307 306 305 306 303 300 299 294 288 285 284 282 280 279 277 276 275 274 273 273 271 269 269 269 270 270 269 267 266 266 266 266 267 267 268 268 268 268 266 265 263 262 263 264 265 266 267 267 266 264 262 262 262 262 262 262
310 310 310 310 310 310 310 311 312 313 313 310 308 306 307 310 312 310 309 310 311 312 310 308 308 308 307 308 307 306 307 306 304 304 301 297 294 291 286 284 284 281 278 277 276 275 275 273 272 271 269 268 267 268 269 270 268 266 266 266 265 266 267 267 268 268 268 267 266 264 263 263 264 265 266 267 267 266 265 263 262 262 262 262 261 262
312 312 312 311 310 311 311 312 311 312 312 310 308 308 307 308 309 310 310 310 310 311 310 309 308 307 306 307 307 305 305 305 303 301 298 294 291 288 285 283 282 280 277 276 276 275 274 272 271 269 267 267 267 267 269 271 268 265 265 265 265 266 267 267 267 267 267 266 265 264 263 264 265 265 267 267 267 266 264 263 262 261 262 262 261 262
313 313 313 312 311 312 312 312 310 310 310 308 308 308 308 307 307 309 310 310 310 310 311 310 309 307 305 305 306 305 304 304 302 299 297 294 290 288 286 284 281 279 277 275 275 274 273 271 269 268 266 266 266 266 268 271 269 266 264 265 266 266 267 267 266 266 266 265 265 264 264 264 266 266 267 267 266 264 263 262 261 261 261 261 262 263
312 312 313 312 312 312 311 312 312 311 310 308 307 308 309 308 307 308 308 309 309 309 310 311 310 309 306 305 305 306 305 304 301 298 296 293 289 286 285 283 280 277 276 275 274 273 271 270 268 267 266 265 265 265 267 269 269 267 265 265 266 267 267 266 266 265 265 265 265 264 265 266 267 267 267 267 265 264 262 261 261 260 261 261 262 263
312 312 312 312 313 313 313 312 312 311 310 309 308 307 308 308 308 307 307 307 307 307 309 310 309 308 307 305 305 305 305 303 302 299 295 292 288 285 284 282 279 277 275 275 274 272 270 269 268 267 266 265 264 264 265 266 267 267 266 266 266 267 266 265 265 265 265 265 265 265 266 267 268 268 267 267 265 264 263 262 261 260 261 262 263 263
313 313 313 312 312 313 313 312 312 311 310 310 309 307 307 307 307 307 306 306 307 307 307 308 307 306 306 305 304 304 304 304 302 299 295 292 288 284 282 281 278 276 275 274 272 270 269 268 268 267 266 264 263 263 264 264 265 266 266 266 266 266 265 264 264 264 264 264 265 266 267 268 268 268 267 266 264 263 264 263 262 261 261 262 263 264
313 313 314 313 313 313 312 311 312 312 311 311 310 308 307 307 306 307 306 306 307 307 307 307 305 304 305 304 303 303 304 304 302 299 296 292 287 284 281 280 278 276 274 273 271 269 269 268 267 266 265 264 263 262 262 262 263 265 265 266 266 265 264 263 263 263 263 264 264 265 267 267 267 268 268 266 263 262 262 262 262 261 262 263 264 265
312 312 313 313 313 313 313 312 312 312 312 312 311 309 308 307 306 307 307 307 307 307 306 306 305 303 302 303 303 303 304 304 302 299 296 292 288 284 282 279 277 275 274 271 270 269 269 268 267 266 265 263 262 261 261 261 262 263 265 265 265 264 264 264 263 263 263 263 264 265 266 266 266 267 267 266 264 262 262 263 263 262 262 263 264 265
312 312 312 313 313 313 313 313 313 312 312 311 311 311 310 308 307 307 307 308 307 307 306 306 306 305 303 302 302 302 303 304 303 299 296 293 288 284 281 278 276 274 273 270 269 269 268 267 266 265 264 262 261 260 260 260 261 262 264 265 264 264 264 265 264 263 263 263 264 264 265 265 265 265 265 264 262 261 262 263 265 265 264 263 263 264
Wind_Speed
2 1 4 7 7 7 9 8 6 4 6 5 4 4 5 5 7 6 3 3 1 2 8 10 9 13 16 18 20 10 5 9 14 9 10 13 12 9 9 11 12 14 12 12 18 22 27 30 32 32 31 30 29 28 28 28 26 23 21 20 19 16 13 11 9 8 7 7 7 8 7 8 7 7 8 7 7 7 8 9 11 13 15 17 18 19
3 3 9 10 9 7 6 6 6 5 5 4 4 4 5 5 7 7 2 4 2 2 6 7 7 14 16 17 20 13 7 13 16 10 13 18 14 9 10 13 13 12 8 8 15 20 25 28 30 31 30 30 30 29 29 29 28 24 22 21 19 16 15 12 10 9 9 8 8 9 8 9 9 8 8 8 8 9 10 10 12 14 16 17 18 19
1 6 12 7 6 5 5 5 6 6 5 3 3 2 4 4 5 6 3 4 2 2 4 6 8 15 18 17 21 19 12 15 14 11 16 18 13 10 12 13 11 10 9 9 11 16 23 26 28 29 30 32 32 30 31 30 28 25 23 22 19 18 16 13 12 11 10 10 9 10 9 10 11 10 9 10 10 10 12 12 13 15 16 18 18 19
2 8 8 3 8 8 6 4 6 5 3 3 3 3 5 3 1 4 4 4 1 2 4 7 10 13 15 16 18 15 8 10 11 11 15 14 11 12 11 10 11 13 13 12 10 13 19 24 27 31 32 33 32 31 32 32 30 27 25 23 21 20 17 15 14 12 11 11 10 10 10 10 12 11 10 11 11 11 13 14 14 15 17 18 19 20
7 7 3 6 6 7 6 3 5 5 2 3 5 6 6 4 5 6 3 4 3 1 3 6 11 10 7 10 10 5 3 7 7 7 12 11 9 9 7 8 12 13 13 12 13 13 16 22 28 31 32 32 33 33 34 34 32 29 27 24 22 20 18 17 15 13 12 11 11 11 10 11 11 12 12 12 12 12 14 15 15 16 17 19 20 21
9 5 7 7 3 6 6 4 5 7 3 4 6 10 9 7 7 5 3 5 4 3 3 5 7 9 1 3 7 4 3 7 3 5 12 10 7 7 8 10 11 11 10 11 13 14 16 21 26 28 30 32 34 35 36 35 33 30 27 25 22 21 19 17 15 13 13 12 12 11 10 10 11 13 14 12 13 15 16 17 17 18 18 20 21 22
3 0 4 6 6 5 5 5 6 8 5 3 5 7 7 5 4 3 1 2 1 3 3 4 1 9 3 4 4 4 4 9 7 8 12 10 6 8 9 10 8 9 9 9 10 13 15 20 23 25 30 34 35 36 35 35 33 30 27 25 23 22 20 18 15 14 14 13 12 11 10 10 10 13 15 14 15 16 17 18 19 19 20 20 22 23
2 4 4 4 6 5 5 6 7 9 7 4 3 5 6 6 5 5 3 2 3 2 3 0 3 8 8 4 4 3 4 10 12 14 13 9 9 9 9 9 8 9 9 8 10 12 15 19 24 27 32 34 35 35 35 35 33 30 27 25 23 21 19 18 15 14 13 13 12 11 10 11 11 13 16 16 16 18 18 19 19 20 21 21 23 24
3 5 5 6 5 5 6 5 8 11 5 4 4 6 6 6 5 5 4 3 2 3 4 4 4 5 10 5 2 3 4 9 12 15 14 10 10 8 7 8 7 8 8 9 11 12 14 19 26 29 31 32 33 34 36 36 34 30 28 25 22 20 19 17 15 13 12 12 11 11 11 12 13 14 15 16 17 18 18 19 20 21 22 23 25 26
2 4 7 8 6 6 5 1 4 8 4 3 6 6 5 4 4 4 3 2 1 2 7 8 7 4 9 4 3 2 4 9 11 12 11 10 9 7 6 6 6 6 7 9 10 10 13 20 26 27 28 29 31 34 35 35 33 30 27 25 22 20 18 16 14 12 11 11 12 11 11 13 14 14 15 16 18 18 18 20 22 23 24 25 27 27
1 1 2 4 4 5 5 3 1 3 3 6 7 5 5 4 4 3 1 3 1 4 8 8 12 10 8 3 5 4 5 9 10 9 8 8 9 7 6 6 6 6 6 7 7 7 11 17 22 24 26 28 30 32 33 33 32 30 27 25 22 19 17 16 13 11 11 12 12 12 12 13 14 13 14 16 18 19 19 21 22 24 25 26 28 29
2 1 2 2 3 5 6 5 3 3 4 5 4 3 3 3 3 4 4 3 1 6 5 4 8 10 9 6 4 6 7 8 10 10 9 9 9 7 5 5 5 6 5 6 6 6 8 11 16 21 24 26 29 31 32 33 31 29 27 25 21 18 17 15 13 12 12 12 12 12 12 12 12 12 14 16 18 19 19 21 23 25 26 28 29 30
2 4 3 1 2 4 6 4 3 3 2 4 3 4 2 4 3 3 3 1 3 7 3 1 3 5 12 11 8 8 10 11 11 10 10 9 9 7 5 5 4 4 5 6 6 7 8 9 12 19 23 25 28 32 33 33 31 29 27 25 21 19 17 15 14 13 12 12 12 11 11 11 11 12 13 15 17 18 18 20 22 24 26 29 31 31
3 4 2 3 3 4 8 6 3 2 3 6 5 4 3 1 1 3 4 2 5 7 3 3 3 4 9 9 12 17 17 15 12 11 10 8 8 7 5 4 4 4 6 6 7 8 9 10 13 19 23 25 28 31 33 33 31 29 27 24 21 19 17 16 14 13 13 13 11 11 11 10 10 12 13 14 16 16 17 19 21 23 26 27 30 31
4 7 5 8 3 6 11 9 5 6 5 5 4 5 5 5 4 5 4 4 7 6 3 1 2 4 4 4 9 15 16 14 10 10 9 7 6 4 3 4 4 5 6 6 7 9 9 11 15 19 23 26 28 31 32 32 31 29 27 25 22 20 18 16 14 14 13 12 11 10 10 10 10 11 12 14 15 16 17 19 21 23 25 27 29 31
4 9 6 3 1 7 9 4 5 8 4 2 3 4 3 5 5 3 3 4 1 4 5 3 4 6 4 3 4 5 7 10 10 8 8 9 7 2 4 7 6 6 7 7 8 9 10 12 16 19 22 25 28 30 32 33 31 30 27 25 22 19 17 15 14 14 13 12 11 10 9 9 10 10 12 13 15 16 18 19 21 24 25 27 29 31
3 6 2 2 2 3 3 1 2 3 3 3 2 4 4 3 5 3 3 1 4 3 7 2 5 10 6 5 6 6 6 9 9 7 9 11 6 4 6 8 7 8 8 8 9 10 9 11 15 20 23 26 28 31 32 32 31 30 28 25 22 19 17 15 15 14 13 12 11 10 9 9 9 10 11 13 15 17 19 20 22 24 26 28 29 31
4 5 3 3 1 1 2 1 2 2 3 6 4 5 3 2 4 3 2 3 2 5 6 4 11 15 12 7 4 5 8 11 11 10 12 10 5 6 10 10 9 8 7 8 9 9 9 10 15 20 24 27 30 31 32 32 30 28 26 24 22 19 17 16 16 15 13 12 11 10 9 8 8 9 11 13 15 17 19 21 23 25 27 28 29 30
4 4 5 2 2 1 3 2 2 3 2 5 4 3 4 3 2 2 2 2 4 4 4 11 17 17 14 9 4 7 12 14 13 11 11 10 8 9 11 11 10 7 6 8 9 9 9 10 15 21 23 26 28 30 31 30 28 26 24 23 21 19 18 17 16 15 13 12 11 9 8 7 8 9 11 13 15 17 19 22 23 25 27 28 29 30
3 4 4 1 1 0 2 1 5 3 1 2 0 0 2 2 4 3 3 3 3 3 5 12 16 15 11 7 8 13 14 13 12 10 10 11 11 11 10 10 9 8 8 9 9 10 10 11 16 21 23 25 27 28 29 29 27 25 24 22 20 19 18 17 16 14 13 11 10 9 7 7 7 9 11 14 15 18 20 22 24 25 27 28 29 30
3 3 4 1 3 1 3 6 9 9 7 4 3 3 2 1 2 1 2 2 3 4 4 6 12 17 8 8 10 13 11 12 12 11 10 10 11 11 10 10 9 8 10 10 9 11 10 11 15 19 22 23 25 26 27 28 27 26 24 22 21 20 19 18 15 14 13 11 9 7 6 6 7 9 12 13 15 18 20 22 23 25 26 28 29 29
3 4 5 3 1 5 8 6 4 5 8 9 8 8 8 6 4 1 5 3 3 4 5 4 9 18 7 7 7 7 8 9 11 11 10 10 11 11 10 11 9 8 10 10 10 10 9 9 12 17 20 23 25 27 28 28 27 26 25 23 22 20 19 17 15 13 12 10 7 6 4 5 7 10 11 13 16 18 20 22 24 25 26 27 27 26
4 2 4 6 6 6 5 2 1 2 4 5 4 6 7 6 6 6 8 5 2 2 3 3 5 18 9 6 5 5 8 9 10 11 10 9 9 10 10 10 8 8 9 9 8 8 7 7 11 16 19 23 25 26 28 29 28 27 25 23 22 20 18 16 14 13 11 8 5 4 4 6 8 10 12 14 17 19 20 22 23 24 25 25 25 24
3 2 4 5 5 3 3 3 2 2 3 3 4 4 6 7 9 8 6 3 2 5 3 3 5 18 12 4 6 5 6 7 7 8 9 7 6 8 9 8 8 8 9 7 7 6 5 7 10 12 16 22 24 25 28 28 27 26 24 23 21 19 16 15 13 11 9 6 4 2 4 6 8 10 12 15 17 19 20 21 23 23 23 23 22 24
4 3 4 2 4 5 4 2 2 3 0 3 5 4 7 10 9 3 0 2 4 9 8 5 10 19 11 3 5 3 4 5 5 5 6 6 6 7 7 7 7 8 8 7 7 6 7 9 10 10 14 20 23 25 27 28 27 26 24 22 20 17 15 14 12 10 8 5 2 2 4 6 8 10 13 15 17 18 19 21 22 22 22 22 24 26
6 5 6 6 7 10 11 10 5 2 2 3 3 6 10 14 14 8 3 5 11 10 9 8 15 21 15 8 5 3 4 5 6 5 5 6 7 8 7 8 8 8 9 9 8 8 9 10 10 10 13 19 23 25 27 27 26 25 23 20 18 17 15 13 11 9 7 3 1 2 4 6 8 11 13 14 16 17 19 20 21 21 22 24 26 28
3 4 10 13 15 14 14 15 6 6 5 6 7 10 13 15 17 12 7 11 11 4 6 15 24 22 20 23 22 11 7 8 9 7 7 8 8 9 9 9 8 8 8 8 8 8 9 10 11 12 14 18 23 25 26 27 25 24 23 20 18 16 14 13 11 9 6 3 1 2 4 6 9 11 13 14 15 17 19 20 21 22 23 24 26 27
3 5 12 17 20 18 18 21 13 6 8 11 10 13 14 14 16 14 16 21 11 5 9 25 25 17 17 27 34 23 12 12 15 13 11 10 10 10 9 8 8 8 7 7 9 11 11 11 12 12 13 18 23 24 24 24 24 24 23 20 18 16 14 12 11 8 5 3 1 2 4 6 9 11 12 14 15 17 19 19 20 22 23 24 25 26
3 7 13 17 21 22 20 25 22 12 10 10 10 14 16 17 19 20 24 28 18 12 20 24 17 13 18 29 34 26 15 14 15 15 12 10 8 7 7 7 9 9 8 9 12 12 13 13 13 13 13 16 21 23 23 23 23 23 22 20 17 16 14 12 10 7 5 3 1 2 5 7 9 10 12 14 16 17 18 19 20 22 22 23 24 25
3 6 13 16 18 20 21 26 25 15 11 12 11 12 17 20 21 22 26 30 28 26 25 22 18 17 23 31 28 19 15 12 9 10 12 10 9 8 8 9 9 10 10 13 14 14 14 14 14 14 13 14 19 23 24 24 24 24 22 20 18 16 14 13 10 7 5 3 0 2 5 7 9 11 13 14 15 17 18 19 20 21 22 23 24 25
3 7 11 11 11 15 21 23 20 14 15 17 13 14 23 23 17 19 26 28 26 24 21 20 20 20 26 28 19 15 18 13 9 14 18 16 14 13 12 11 10 11 12 13 14 13 13 13 12 13 14 16 20 24 25 25 25 25 23 21 19 18 15 12 10 7 5 2 0 3 5 7 9 11 13 14 15 16 17 18 20 21 22 24 25 26
4 6 6 7 9 13 18 19 14 11 10 11 14 23 30 25 16 19 25 22 17 15 18 18 17 19 23 19 10 11 15 11 13 19 20 18 15 13 14 15 13 12 13 13 13 13 13 14 14 15 16 18 22 25 26 27 27 26 24 22 21 19 16 12 10 8 5 2 1 3 5 8 10 11 13 14 15 16 17 18 19 21 22 24 25 25
6 6 6 7 9 12 17 14 6 5 4 8 15 23 27 23 21 24 25 21 15 12 13 16 17 21 22 16 13 15 12 9 14 18 17 17 14 11 14 17 15 13 12 13 13 13 14 15 15 16 18 19 24 28 29 31 31 29 26 25 22 19 16 13 10 8 5 3 2 3 6 7 9 11 12 13 14 16 17 18 19 21 22 24 24 25
6 8 8 8 9 12 12 6 4 5 10 13 8 9 16 21 23 25 25 22 15 12 13 17 20 25 25 21 20 20 17 15 18 20 17 13 9 11 17 17 13 12 11 11 12 13 13 13 12 14 18 22 25 27 29 31 32 29 27 25 23 19 16 14 11 8 5 3 3 4 5 7 9 11 12 13 14 15 16 18 20 21 22 23 24 25
8 10 9 6 7 7 2 5 5 11 14 9 3 5 13 15 16 19 20 18 14 15 19 21 23 27 29 27 21 18 20 21 21 24 19 9 8 13 18 16 12 11 11 10 11 11 11 12 11 12 18 25 28 30 31 31 30 30 28 25 22 20 16 14 11 8 6 4 3 3 5 7 8 10 11 12 13 14 17 19 21 22 22 23 24 25
11 9 7 6 7 3 3 7 12 10 5 4 9 15 13 8 9 12 15 14 12 17 22 20 22 28 29 25 20 18 20 18 18 22 14 8 13 18 17 15 13 12 12 11 11 12 13 15 17 18 23 29 33 34 34 33 32 31 28 24 22 20 16 14 11 8 6 5 3 3 5 6 7 9 10 11 13 15 17 19 21 22 22 23 25 26
13 10 7 8 9 7 8 12 11 8 8 9 17 21 11 8 11 12 11 13 13 19 23 18 21 27 25 21 22 20 15 10 13 18 11 11 17 18 14 14 14 11 11 10 10 13 16 19 22 24 30 34 36 37 36 35 34 32 28 24 22 19 16 13 11 9 7 5 3 2 3 4 6 7 9 10 12 14 17 19 20 21 22 24 26 27
15 13 10 10 10 9 10 10 8 9 11 14 23 25 11 9 11 9 6 10 16 24 25 18 21 26 22 21 22 14 6 6 11 16 13 11 14 12 11 13 11 8 8 7 8 11 16 22 26 31 37 38 36 36 37 36 34 32 29 25 22 19 16 14 11 9 7 5 3 2 2 3 4 6 7 10 12 14 16 18 19 21 21 23 25 27
18 13 12 12 9 8 10 10 9 12 11 12 22 23 9 9 9 5 2 11 21 27 25 18 21 25 22 22 19 7 3 7 11 14 14 9 9 9 10 9 6 5 7 10 13 15 20 29 33 35 39 39 34 34 37 36 34 31 29 25 22 20 17 14 12 10 8 6 3 2 0 1 2 4 6 9 11 12 15 16 18 20 21 22 25 27
16 11 11 12 11 12 13 11 9 8 7 10 16 14 5 11 10 6 4 16 21 21 19 18 21 22 20 18 13 8 8 11 13 11 8 3 4 4 5 7 7 7 7 8 14 22 30 36 35 32 35 38 36 36 38 36 32 30 28 25 22 20 17 15 12 10 8 6 4 3 2 1 1 3 5 8 9 11 13 15 17 19 21 22 24 26
9 10 11 12 14 16 15 13 10 6 6 11 12 6 10 10 7 5 13 20 16 10 11 15 18 18 17 14 10 9 12 15 13 6 2 5 5 3 3 4 5 7 8 10 19 31 37 38 37 35 34 36 37 37 38 35 30 28 26 24 22 19 17 15 13 11 9 7 6 4 3 2 1 3 5 7 8 10 12 15 16 18 20 22 23 25
5 7 8 10 11 12 12 13 11 6 8 13 10 10 11 6 5 12 19 20 12 6 8 11 14 14 14 13 12 11 13 15 11 4 5 6 6 5 6 7 6 7 11 16 27 36 36 32 33 34 32 33 37 38 37 34 29 27 26 23 20 19 17 15 13 11 10 8 7 5 4 3 3 4 5 6 8 10 12 14 16 17 19 21 23 24
10 7 6 8 9 8 9 10 8 6 12 16 12 9 8 11 14 16 17 17 15 11 10 10 11 11 11 11 12 13 14 12 8 7 7 7 7 7 8 8 7 7 9 12 20 32 33 27 28 31 30 32 35 36 36 34 30 28 25 21 19 19 18 16 14 12 11 9 7 6 5 5 4 4 5 6 9 10 13 15 16 17 19 19 22 23
10 8 6 7 8 7 8 10 11 11 14 17 17 12 15 20 19 17 15 14 16 14 10 9 11 12 10 11 12 13 13 10 7 8 9 8 8 8 8 8 8 7 7 8 16 29 32 27 25 29 30 31 33 33 34 34 32 29 24 20 21 21 18 16 15 13 11 10 8 7 7 6 5 5 6 8 9 11 13 15 16 18 18 18 21 22
13 15 13 11 10 11 13 12 11 11 11 13 17 19 22 24 23 21 18 16 14 12 10 9 11 11 10 12 12 11 11 11 11 11 11 11 12 11 9 8 8 6 7 11 18 27 32 32 30 28 25 26 30 31 31 32 33 30 24 22 23 21 18 17 16 14 12 11 9 8 7 7 6 6 7 9 10 11 13 14 15 17 18 18 20 20
16 20 18 13 10 12 15 11 6 9 12 14 17 19 19 20 20 21 21 17 14 12 10 8 8 9 10 11 11 10 12 13 13 13 12 10 11 10 8 7 8 8 10 14 18 24 32 35 31 25 21 22 27 29 28 29 31 30 27 25 24 22 19 18 16 15 13 11 9 8 7 7 6 8 9 10 11 11 11 13 14 15 16 17 18 20
14 17 16 13 10 11 13 11 12 16 18 16 16 18 19 19 18 17 17 17 16 16 12 7 7 8 8 10 12 14 15 13 13 12 10 9 11 11 10 9 10 10 11 16 25 32 35 29 20 16 17 19 24 28 27 26 27 28 28 28 25 22 20 19 17 16 14 12 10 9 7 6 7 9 10 11 12 11 11 11 12 13 15 16 18 21
8 12 13 14 14 14 14 14 15 18 19 17 16 15 16 18 19 17 16 15 14 14 11 8 8 8 8 11 15 16 15 13 13 13 11 10 11 12 12 10 11 11 11 17 31 39 31 19 12 14 16 18 24 29 28 26 26 27 28 27 24 23 22 20 18 17 15 13 11 9 8 8 8 10 11 12 13 12 11 11 12 13 14 15 18 21
3 6 8 10 14 16 16 15 14 15 16 16 16 15 15 17 19 19 18 15 12 12 12 11 11 11 12 14 16 15 14 14 13 14 13 11 10 13 14 10 10 11 10 17 32 40 32 20 17 18 17 21 28 31 28 27 27 27 27 26 24 23 22 21 19 18 16 14 12 11 10 9 9 10 10 12 14 14 11 9 10 12 13 14 16 18
6 6 6 7 11 12 12 14 15 15 14 15 17 18 17 16 16 17 17 15 14 15 17 17 15 13 12 14 14 13 14 15 14 13 13 12 12 15 15 11 9 8 10 19 32 38 35 32 31 27 22 25 31 32 29 29 28 26 26 25 24 23 22 22 21 19 16 15 13 12 12 11 11 11 9 10 13 16 15 11 7 7 9 13 16 17
9 10 8 10 13 13 13 12 12 13 15 16 17 17 16 14 15 17 18 17 18 18 18 19 19 16 14 15 14 13 15 18 15 13 13 13 12 14 16 16 13 10 12 19 23 22 23 28 33 31 27 28 32 32 30 30 28 26 26 25 24 22 22 22 22 20 18 16 14 13 13 12 12 11 9 9 10 14 17 16 13 9 8 11 15 17
Wind_Direction
97 153 230 226 219 207 209 202 193 179 146 140 151 186 232 241 266 265 246 291 322 204 259 250 248 263 265 268 274 265 179 240 254 245 250 248 242 231 219 224 220 224 231 216 211 209 205 202 198 196 193 192 193 193 193 191 193 196 196 198 197 197 200 203 210 218 231 243 253 261 266 273 279 287 286 276 284 298 300 307 314 319 324 324 328 329
85 198 240 232 210 197 198 180 137 120 118 112 159 208 258 233 254 272 276 317 342 169 264 279 277 268 264 266 272 265 217 245 251 232 246 250 244 233 223 228 224 226 228 199 205 207 204 203 200 198 197 195 195 194 194 194 195 197 199 201 198 198 202 205 213 222 233 244 255 264 273 283 289 294 294 289 292 300 302 309 313 315 319 321 325 326
57 236 248 228 165 120 87 125 124 119 123 113 138 182 261 243 270 294 326 346 358 192 270 296 288 271 267 264 265 263 243 248 250 218 235 249 245 233 226 229 225 224 222 204 203 202 201 203 200 199 199 199 198 196 196 196 197 197 199 201 197 199 204 208 216 225 235 244 254 265 274 286 295 299 297 295 299 302 305 310 311 312 316 319 322 324
199 251 255 182 138 116 84 102 113 105 120 152 148 177 250 248 280 284 307 330 275 217 278 290 279 268 264 259 260 267 258 255 254 228 236 245 238 236 229 221 219 219 220 210 203 199 198 200 200 200 200 199 199 198 198 197 197 198 200 200 197 201 206 210 218 227 235 243 250 260 270 281 290 295 296 296 298 302 307 310 311 314 317 319 321 323
229 238 157 115 125 121 118 135 136 144 222 242 198 206 237 235 223 237 282 322 312 317 331 310 292 278 251 248 260 295 319 275 259 240 250 246 233 245 243 222 218 219 217 208 203 198 195 199 201 201 199 198 198 199 199 197 197 200 201 200 199 202 207 211 219 227 235 241 247 254 265 277 286 292 295 298 300 303 306 308 313 318 319 319 320 322
248 226 138 128 121 114 139 192 187 174 204 290 232 214 221 227 233 251 327 352 355 331 336 9 323 298 233 201 263 299 318 286 257 233 255 252 226 230 240 233 223 222 218 209 204 198 198 201 202 200 199 198 200 202 200 198 199 202 202 201 200 203 207 211 217 225 234 239 244 250 262 277 290 294 295 297 298 300 303 307 312 317 318 317 317 319
255 156 123 149 159 152 176 234 224 172 151 285 247 202 199 200 208 227 360 11 299 254 304 52 328 282 271 146 245 275 290 283 274 258 259 259 240 218 228 233 223 221 216 208 206 200 200 200 198 200 200 200 202 202 200 199 201 202 201 201 202 205 207 210 215 223 232 236 239 248 260 274 283 287 291 295 295 296 301 307 311 315 316 316 316 318
148 96 83 126 139 159 194 244 218 158 138 238 232 130 136 151 173 182 142 171 238 273 321 343 178 274 276 214 243 275 270 279 277 271 268 262 252 234 229 231 221 218 208 202 207 202 201 199 198 201 201 202 202 201 199 199 201 202 201 201 203 206 208 210 215 223 231 234 236 244 257 268 274 277 286 295 296 298 303 307 310 314 315 317 318 319
121 147 171 147 133 178 205 232 195 159 154 235 186 119 124 140 152 151 132 183 261 19 307 254 163 272 273 234 304 338 232 255 262 261 263 262 257 247 236 232 221 216 205 202 208 205 202 200 201 203 201 202 202 200 200 200 201 202 201 202 205 207 208 210 216 223 228 231 234 241 251 263 270 273 282 290 294 298 303 305 310 314 315 318 321 321
76 194 192 149 150 204 206 239 188 170 189 184 131 100 79 78 85 91 120 151 36 348 261 240 169 228 274 214 142 64 195 235 248 252 256 258 262 254 240 236 222 213 208 208 212 207 204 203 203 202 200 201 201 200 201 201 201 201 201 203 205 207 208 210 218 223 226 228 232 240 248 260 269 274 282 288 293 299 302 304 310 314 315 318 321 322
357 311 201 151 168 185 142 89 98 140 142 129 112 78 49 45 56 51 60 95 36 266 257 237 181 192 271 247 164 184 197 209 221 240 253 259 266 253 231 230 216 210 210 209 212 207 203 203 201 198 198 199 199 200 200 200 201 201 202 204 205 206 207 211 219 223 224 226 231 240 248 257 268 278 286 291 295 301 304 307 312 314 315 319 321 321
358 23 236 221 149 129 102 76 40 53 101 112 101 75 31 341 14 19 357 56 256 255 262 252 183 187 243 250 202 227 240 218 206 215 224 232 251 247 218 224 219 209 206 200 202 199 192 193 192 194 196 197 196 198 198 198 199 200 201 204 204 204 205 211 219 223 225 226 231 240 247 257 268 278 285 289 294 300 304 308 312 314 317 320 321 320
290 219 217 208 163 145 119 88 30 10 74 112 103 88 47 326 356 350 306 140 226 254 251 149 151 216 246 246 229 236 249 236 216 212 209 209 232 239 218 222 223 205 199 197 197 195 191 188 189 192 194 194 194 196 197 196 198 199 201 204 205 203 204 211 218 224 226 226 231 238 246 258 268 277 283 286 291 297 304 308 309 312 316 318 318 318
290 286 148 160 244 184 159 166 200 229 178 165 149 129 142 141 52 279 269 277 271 271 269 134 143 250 269 255 219 218 227 224 213 214 217 215 228 236 233 228 225 213 203 200 200 198 197 197 195 194 193 193 195 196 195 195 198 199 200 202 205 202 203 211 218 223 225 225 230 238 246 258 267 276 282 287 292 300 307 308 307 309 312 312 312 313
243 283 199 174 216 177 182 199 175 138 150 178 156 140 158 154 176 234 232 247 274 290 294 210 182 224 252 261 215 214 226 226 217 218 225 243 246 243 268 255 236 224 211 205 207 206 205 201 197 196 194 195 196 195 194 196 198 199 199 201 203 201 202 210 217 220 222 223 229 237 246 258 268 277 286 292 299 307 311 309 307 310 311 310 309 310
217 266 230 175 277 169 181 208 118 112 133 195 129 125 177 177 175 215 213 192 224 319 292 231 222 226 219 284 264 234 237 228 226 229 234 251 245 212 261 253 238 229 215 207 210 212 209 203 199 198 196 196 196 194 194 196 198 197 197 200 201 200 202 209 214 216 219 222 227 236 246 258 269 281 291 298 308 314 313 310 309 311 311 310 310 309
201 273 280 51 321 183 171 220 105 119 172 164 147 176 208 183 139 145 266 40 74 285 272 239 255 271 287 286 233 208 223 223 221 226 232 238 220 190 240 243 233 228 216 209 211 212 206 199 201 201 198 196 194 193 194 195 196 195 195 197 197 198 201 206 210 213 217 222 227 235 245 260 275 287 297 306 315 317 313 312 312 312 311 311 311 310
191 263 261 139 209 292 355 40 61 14 118 132 194 209 174 110 95 110 248 355 30 246 270 290 270 273 282 277 207 184 225 234 229 225 232 236 204 206 238 239 233 227 215 216 217 213 206 200 202 202 200 199 196 193 193 192 192 193 194 196 196 198 202 204 208 212 215 220 227 236 248 264 281 294 306 315 319 316 313 315 315 313 312 313 312 312
173 237 266 116 123 330 360 69 95 351 70 127 206 206 115 138 154 109 166 226 253 238 275 282 276 272 262 250 219 209 217 223 229 226 229 230 212 218 236 238 234 222 209 218 218 213 209 204 203 201 199 198 196 193 190 187 187 188 190 194 197 200 202 203 207 211 213 218 226 237 251 270 289 303 316 321 319 315 315 317 317 314 314 314 314 312
151 209 252 14 348 284 35 165 188 210 66 76 256 104 71 156 170 168 166 179 219 220 264 280 282 276 251 194 189 218 213 206 213 216 217 221 217 217 226 233 228 213 212 216 214 214 211 206 205 202 198 194 191 188 185 182 183 185 188 192 196 198 200 202 206 208 210 216 227 238 253 278 299 315 324 324 319 317 319 319 318 316 315 314 313 312
101 211 228 317 333 229 187 207 199 192 178 161 171 175 196 170 127 210 232 125 145 194 235 267 273 272 256 149 180 210 202 195 198 201 210 216 220 219 220 227 222 210 217 216 213 215 210 205 202 199 196 191 186 183 180 181 183 184 188 192 195 197 198 201 203 205 211 215 225 241 261 291 317 329 328 323 320 320 321 320 319 318 316 313 312 311
150 204 213 183 237 232 227 222 196 192 179 173 185 188 190 180 132 183 251 221 147 193 206 192 258 270 262 126 172 188 169 192 195 195 208 209 214 220 220 224 218 213 219 217 215 215 205 201 195 189 187 184 182 181 179 181 182 184 188 192 195 196 197 199 199 202 210 216 225 247 282 312 332 334 325 321 323 324 323 322 321 320 316 312 310 309
132 143 218 222 227 233 252 297 328 243 162 157 208 193 177 176 158 187 232 231 157 216 220 115 263 268 260 116 136 164 164 193 194 192 206 209 211 218 222 225 220 220 225 220 217 211 201 195 185 181 182 182 183 182 178 180 183 186 190 192 193 195 194 195 198 201 207 215 228 258 310 332 338 331 323 325 326 326 326 324 322 319 315 310 307 307
103 131 209 246 277 302 352 17 351 321 105 144 240 189 168 199 196 203 220 183 168 219 205 97 257 264 271 100 133 183 176 184 194 197 205 211 221 225 227 228 222 224 228 223 213 202 187 183 177 178 184 185 185 182 179 182 185 188 191 191 192 192 191 193 196 199 205 211 228 292 337 339 335 326 325 329 329 328 327 323 320 317 313 310 307 308
172 176 166 206 290 289 286 290 326 330 245 212 236 177 188 218 213 222 335 118 238 224 180 167 249 258 266 91 120 188 190 190 211 219 212 213 226 231 232 232 224 222 225 217 201 190 185 185 185 187 188 187 186 183 181 183 186 188 189 190 190 188 188 192 193 196 201 204 222 333 345 335 329 326 329 333 330 329 326 321 317 314 311 311 310 311
175 176 165 184 227 235 244 245 227 180 185 227 230 179 196 209 203 206 215 218 239 223 161 185 246 254 261 272 257 209 197 232 241 231 232 236 234 233 233 230 221 218 221 212 194 190 195 194 194 193 190 189 188 184 183 184 186 187 186 186 188 187 186 190 191 192 195 192 204 342 339 328 327 330 334 334 331 328 322 317 314 313 312 314 314 315
156 184 189 203 222 227 241 252 229 122 152 216 211 198 204 207 204 205 223 234 229 175 163 226 241 252 270 278 271 244 211 254 264 243 234 238 235 234 235 230 221 219 219 205 192 196 198 197 199 195 191 191 190 187 184 185 184 183 181 181 184 186 186 187 188 188 184 178 185 336 330 325 330 335 336 334 330 323 317 314 314 315 317 318 318 318
125 207 205 213 229 233 244 257 247 175 205 223 207 207 213 207 202 201 222 233 219 126 226 240 241 251 267 270 267 261 252 264 273 268 258 250 241 234 229 224 220 222 214 193 199 205 200 200 200 195 192 190 190 187 184 184 183 180 179 179 181 184 185 185 186 183 175 171 186 322 324 328 335 339 338 332 325 318 316 316 317 320 322 323 322 321
177 223 218 220 235 239 243 254 250 228 225 225 203 212 220 210 203 206 223 234 226 215 239 247 248 250 253 257 262 268 270 265 267 269 265 258 248 231 219 215 217 219 206 199 209 208 201 203 200 194 193 188 185 184 180 179 177 175 176 178 179 182 183 183 183 177 171 172 196 313 327 335 340 341 337 329 322 319 319 319 322 325 327 327 327 325
190 232 231 231 242 245 243 249 248 238 237 237 223 222 231 225 211 211 229 236 233 234 245 256 262 258 255 256 262 276 282 268 261 271 270 260 247 237 231 227 224 218 207 208 214 210 204 205 199 192 190 186 184 182 177 174 172 172 174 175 177 181 182 181 179 172 168 170 217 325 337 342 344 342 334 326 322 321 322 324 327 331 331 331 331 328
207 229 239 245 254 251 247 250 249 238 237 243 246 247 247 242 225 221 235 240 241 246 254 262 265 261 258 261 270 285 281 275 273 273 272 268 262 261 259 250 234 221 216 214 214 210 206 202 195 190 190 189 187 182 175 171 169 170 172 174 177 180 179 177 174 169 168 166 359 342 348 348 346 341 330 325 324 323 325 329 332 333 334 334 333 329
204 224 241 252 257 251 250 255 248 230 233 244 247 248 249 246 236 234 240 240 241 251 260 262 260 255 259 267 274 262 261 265 267 266 268 269 268 267 267 264 249 227 220 219 213 207 203 198 193 193 193 189 185 179 174 170 167 168 171 173 176 178 175 174 171 164 163 152 46 359 356 352 344 337 329 327 326 326 330 333 335 337 338 336 332 327
194 214 227 231 244 252 253 251 224 168 205 237 236 241 246 249 246 245 250 250 235 230 248 256 255 258 267 275 270 257 252 248 255 259 263 267 266 260 259 261 255 238 224 217 210 204 200 198 196 195 192 185 181 179 175 171 168 169 172 173 174 174 171 170 168 161 153 131 61 11 359 352 342 333 328 327 328 330 334 336 338 341 340 335 330 326
196 213 227 222 234 248 245 224 134 161 228 241 234 224 234 243 247 249 255 256 241 225 234 246 257 267 271 269 265 267 267 260 259 262 260 254 252 255 257 256 249 240 232 217 207 204 201 197 193 189 184 180 178 175 172 170 170 169 170 170 170 169 168 166 163 156 142 115 58 18 1 350 340 330 327 330 333 334 337 339 342 343 340 334 329 326
201 211 225 223 237 249 173 134 190 220 228 241 297 245 232 236 243 250 259 259 248 243 243 245 255 262 264 265 267 268 269 267 268 270 264 229 206 243 256 254 240 231 233 219 202 201 195 183 179 177 174 173 171 168 167 167 167 166 166 167 166 165 166 163 155 147 133 107 61 21 2 347 335 328 328 333 336 336 339 343 344 343 340 334 328 324
213 214 221 219 229 235 146 197 225 239 254 312 294 264 245 229 238 256 265 259 245 247 248 245 250 255 259 267 269 264 264 268 273 274 265 187 204 236 244 247 244 231 226 216 200 197 189 180 179 174 169 167 165 165 165 165 165 164 162 165 165 162 161 157 148 140 128 106 73 28 2 341 328 327 330 334 338 340 343 344 343 342 340 333 326 322
215 214 218 222 222 222 225 227 235 270 291 279 264 255 232 199 223 240 257 259 249 248 247 240 246 254 258 261 262 262 269 280 280 276 257 192 215 236 232 235 244 231 217 209 193 186 179 175 174 167 162 161 162 164 164 163 164 162 158 161 162 158 156 152 143 137 128 110 88 39 359 327 320 329 332 336 341 344 344 343 341 341 339 331 324 320
214 214 214 224 225 222 237 242 238 248 246 238 246 250 225 182 206 209 228 259 255 251 247 237 241 252 254 253 255 257 275 282 269 271 266 225 219 228 222 228 236 218 194 175 157 156 158 159 161 160 159 158 159 163 163 162 162 159 155 157 158 155 154 149 142 138 129 117 108 64 351 312 317 328 333 341 347 346 344 342 341 340 337 330 322 317
217 218 220 232 235 227 238 243 232 235 234 229 245 253 227 160 165 149 198 257 253 250 248 239 238 244 245 248 250 230 196 253 255 262 267 242 209 212 215 216 210 175 160 156 154 152 152 153 153 155 156 155 157 162 162 161 160 156 153 156 156 155 153 148 144 140 132 128 128 126 165 297 322 331 342 350 350 346 344 343 342 339 335 329 322 317
213 212 220 229 231 228 233 239 238 243 246 240 249 254 190 143 132 114 251 259 251 243 237 230 231 235 233 236 236 206 200 230 243 253 260 209 161 189 195 183 171 159 147 146 151 150 149 149 148 151 156 156 159 162 162 160 157 153 153 155 155 154 152 148 144 139 134 136 138 143 150 129 352 348 359 358 350 346 347 346 343 339 335 329 324 320
204 206 215 221 226 229 229 237 246 241 238 246 244 196 133 125 123 175 240 253 247 219 206 211 219 225 222 214 208 205 213 224 231 235 133 126 131 122 130 137 141 144 139 139 144 145 147 150 152 155 158 159 159 161 161 158 154 151 153 154 153 154 152 149 144 138 137 140 141 145 146 122 74 20 13 4 352 348 350 350 344 338 334 329 325 321
180 197 213 214 223 228 225 236 248 238 227 234 214 156 142 152 204 223 238 253 252 208 195 210 212 213 213 205 201 210 222 225 221 188 143 160 160 144 140 133 121 127 136 140 144 146 146 149 152 152 153 157 159 160 161 157 151 151 153 150 151 154 151 147 143 139 141 143 142 143 137 116 84 42 25 10 360 354 352 352 347 341 336 330 324 320
179 186 209 201 208 223 225 229 237 234 221 207 178 152 178 210 226 234 243 259 262 242 221 222 221 214 206 202 206 217 225 225 211 188 189 185 163 155 160 155 143 141 140 138 147 151 149 147 149 149 151 157 159 160 161 157 151 151 151 147 151 155 150 145 142 141 144 145 142 140 129 108 87 58 35 17 9 3 355 352 348 344 340 332 325 321
176 182 209 200 193 204 217 215 216 228 217 185 169 184 207 211 223 237 240 247 254 247 232 227 229 219 201 200 211 219 223 221 204 195 198 191 176 169 164 158 155 152 146 141 150 154 151 147 146 147 150 157 160 161 163 160 152 147 146 147 154 156 149 144 144 144 146 145 141 137 123 105 89 64 41 26 17 8 359 354 348 343 340 336 330 323
188 196 218 223 204 207 224 225 216 225 218 184 185 208 214 212 221 232 236 238 244 245 240 235 233 221 201 203 212 216 219 216 206 201 202 196 186 174 163 162 157 145 145 147 150 155 155 151 147 144 147 157 161 162 164 163 154 146 145 152 157 154 147 146 147 145 145 144 140 133 121 107 90 64 45 33 24 12 1 353 345 340 339 337 332 322
205 209 222 232 219 219 237 239 207 215 222 208 208 219 222 220 221 229 237 242 244 245 239 228 228 218 201 201 207 216 223 216 206 207 208 197 186 174 159 154 148 141 149 152 153 157 155 149 146 143 141 152 160 162 164 163 155 148 149 156 157 151 146 148 148 145 144 142 137 129 120 107 86 64 49 36 26 18 4 352 343 337 335 334 329 323
219 221 229 234 224 224 235 224 205 217 223 216 216 224 229 231 228 227 233 238 243 248 243 226 226 217 195 193 206 219 226 214 203 208 203 187 186 181 164 156 157 161 167 163 158 157 153 148 147 145 140 148 159 162 162 160 156 152 153 155 153 148 148 149 147 145 144 141 136 130 118 102 78 60 48 34 25 20 10 0 349 338 332 330 326 322
218 216 226 232 227 229 235 223 216 227 229 222 221 222 226 234 235 232 234 236 242 253 250 231 221 211 198 202 211 221 227 215 203 204 198 189 192 185 174 168 163 161 164 159 156 155 154 150 150 151 146 148 158 161 160 158 157 155 154 153 150 149 150 150 147 144 141 138 134 125 113 98 76 59 45 29 20 18 12 6 358 344 332 330 327 323
285 223 228 240 237 238 243 239 238 249 247 239 237 229 224 231 235 235 239 240 241 252 254 240 224 214 213 218 218 219 223 221 210 201 196 193 189 183 182 175 158 156 160 158 159 161 162 158 152 149 145 149 156 159 158 156 157 157 155 151 150 151 152 149 146 143 139 137 131 119 108 97 79 64 46 24 13 10 8 6 358 341 328 329 333 331
299 268 257 262 252 244 241 235 234 244 249 245 242 236 230 232 236 239 244 241 234 237 242 242 240 232 225 228 227 215 217 227 220 200 194 197 192 188 183 165 147 152 155 155 160 163 164 160 155 149 144 149 156 157 156 156 157 157 155 152 152 155 155 149 145 142 138 135 128 116 108 98 84 73 53 28 12 3 1 3 3 348 333 333 337 339
241 245 239 246 250 249 248 244 238 244 251 250 248 245 238 231 233 238 241 240 236 234 235 238 241 240 235 236 230 213 218 230 219 195 196 202 192 184 178 167 160 160 154 152 155 157 159 160 156 150 145 151 156 157 155 157 158 156 155 154 155 158 158 152 147 142 138 133 125 116 110 100 89 80 64 42 20 5 360 358 1 11 14 358 349 347